Stations météo

Publicité
Charleroi/Gosselies, Belgique (6449): Température de l'air & dewpoint: 13.12.2018 02:00:00 - 19.12.2018 02:00:00 (CET)Charleroi/Gosselies, Belgique (6449): Vitesse du vent & gusts: 13.12.2018 02:00:00 - 19.12.2018 02:00:00 (CET)Charleroi/Gosselies, Belgique (6449): Direction du vent: 13.12.2018 02:00:00 - 19.12.2018 02:00:00 (CET)Charleroi/Gosselies, Belgique (6449): reduced air pressure: 13.12.2018 02:00:00 - 19.12.2018 02:00:00 (CET)Charleroi/Gosselies, Belgique (6449): visibility: 13.12.2018 02:00:00 - 19.12.2018 02:00:00 (CET)
Date & Time tt [°C] td [°C] ff [km/h] ff [knt] fx [km/h] fx [knt] dd ppp [hPa] vv [km]
19.12.2018 02:00:00 7,1 1,8 28 15 43 23 S 1010,1 10
19.12.2018 01:00:00 6,6 0,6 22 12 - - S 1010,4 10
19.12.2018 00:00:00 6,2 0,4 21 11 32 18 S 1010,8 10
18.12.2018 23:00:00 6,1 0,4 21 11 43 23 S 1011,5 10
18.12.2018 22:00:00 6,1 0,5 24 13 - - SSE 1011,9 10
18.12.2018 21:00:00 6,1 0,5 22 12 32 18 SSE 1012,2 10
18.12.2018 20:00:00 6,1 0,6 22 12 36 19 SSE 1012,5 10
18.12.2018 19:00:00 5,9 1,0 18 10 - - SSE 1013,6 10
18.12.2018 18:00:00 5,7 0,9 21 11 36 19 SSE 1014,3 10
18.12.2018 17:00:00 5,9 0,3 18 10 32 18 SE 1015,1 10
18.12.2018 16:00:00 6,9 1,5 15 8 - - SE 1016,0 10
18.12.2018 15:00:00 7,8 2,4 26 14 43 23 SSE 1016,6 10
18.12.2018 14:00:00 8,0 3,4 26 14 43 23 S 1017,6 10
18.12.2018 13:00:00 8,3 4,5 22 12 - - S 1019,1 10
18.12.2018 12:00:00 7,1 4,9 22 12 43 23 S 1020,3 10
18.12.2018 11:00:00 6,3 4,5 22 12 40 21 SSE 1021,4 10
18.12.2018 10:00:00 6,1 4,6 18 10 - - S 1021,7 10
18.12.2018 09:00:00 6,0 5,0 21 11 32 18 S 1022,2 10
18.12.2018 08:00:00 5,7 4,8 16 9 29 16 S 1022,6 10
18.12.2018 07:00:00 5,7 4,7 18 10 - - SSE 1022,7 10
18.12.2018 06:00:00 6,0 4,9 15 8 29 16 S 1023,7 10
18.12.2018 05:00:00 6,2 5,1 16 9 29 16 S 1023,7 9
18.12.2018 04:00:00 6,2 5,1 18 10 - - S 1024,2 9
18.12.2018 03:00:00 6,1 5,0 21 11 32 18 S 1024,4 9
18.12.2018 02:00:00 6,1 5,1 22 12 32 18 SSW 1024,6 9
18.12.2018 01:00:00 5,7 4,7 18 10 - - S 1025,0 7
18.12.2018 00:00:00 5,2 4,4 18 10 40 21 S 1025,8 8
17.12.2018 23:00:00 5,5 4,4 22 12 40 21 SSW 1025,7 8
17.12.2018 22:00:00 6,0 4,9 22 12 - - SSW 1025,5 8
17.12.2018 21:00:00 6,3 5,1 18 10 25 14 SSW 1025,0 10
17.12.2018 20:00:00 6,3 5,1 16 9 25 14 SSW 1024,6 10
17.12.2018 19:00:00 6,5 5,2 15 8 - - SSW 1024,2 10
17.12.2018 18:00:00 6,6 5,2 16 9 25 14 SSW 1023,9 10
17.12.2018 17:00:00 6,5 5,3 15 8 29 16 SSW 1023,3 10
17.12.2018 16:00:00 6,9 5,5 22 12 - - SW 1022,6 10
17.12.2018 15:00:00 7,4 5,4 15 8 29 16 SSW 1021,7 10
17.12.2018 14:00:00 7,3 5,4 16 9 29 16 SW 1020,9 10
17.12.2018 13:00:00 6,7 5,1 18 10 - - SW 1020,7 10
17.12.2018 12:00:00 6,3 4,8 22 12 29 16 SW 1020,3 10
17.12.2018 11:00:00 5,8 4,6 18 10 29 16 SW 1019,8 10
17.12.2018 10:00:00 5,2 4,2 18 10 - - SW 1019,1 10
17.12.2018 09:00:00 5,3 4,2 18 10 32 18 SW 1018,0 10
17.12.2018 08:00:00 5,5 4,4 21 11 29 16 SW 1016,6 10
17.12.2018 07:00:00 5,6 4,8 18 10 - - SW 1015,4 10
17.12.2018 06:00:00 5,8 5,1 16 9 25 14 SSW 1014,5 10
17.12.2018 05:00:00 5,4 4,8 16 9 32 18 SSW 1014,0 7
17.12.2018 04:00:00 5,7 4,6 18 10 - - SSW 1013,4 10
17.12.2018 03:00:00 5,4 4,5 15 8 25 14 S 1013,2 9
17.12.2018 02:00:00 5,1 4,0 15 8 29 16 S 1013,0 10
17.12.2018 01:00:00 4,9 3,9 18 10 - - S 1013,1 15
17.12.2018 00:00:00 4,6 3,7 13 7 18 10 SSE 1013,1 6
16.12.2018 23:00:00 3,6 3,1 8 4 18 10 SE 1013,1 6
16.12.2018 22:00:00 3,1 2,7 11 6 - - S 1013,1 3,2
16.12.2018 21:00:00 2,5 1,9 16 9 25 14 S 1013,1 7
16.12.2018 20:00:00 2,4 2,0 11 6 22 12 S 1012,7 1,8
16.12.2018 19:00:00 2,1 1,8 13 7 - - S 1012,5 1,2
16.12.2018 18:00:00 2,0 1,7 13 7 29 16 SSW 1012,5 1,2
16.12.2018 17:00:00 2,4 1,9 16 9 29 16 S 1012,1 2,8
16.12.2018 16:00:00 2,5 2,0 15 8 - - S 1011,9 3,5
16.12.2018 15:00:00 2,5 2,1 21 11 32 18 SSW 1011,8 2,5
16.12.2018 14:00:00 2,5 2,0 21 11 29 16 SSW 1011,9 2,8
16.12.2018 13:00:00 2,1 1,8 18 10 - - SW 1012,0 0,8
16.12.2018 12:00:00 2,3 2,0 18 10 29 16 SSW 1011,8 0,8
16.12.2018 11:00:00 1,8 1,3 21 11 29 16 SSW 1011,7 4,0
16.12.2018 10:00:00 1,6 1,0 22 12 - - SSW 1011,6 6
16.12.2018 09:00:00 1,2 0,7 21 11 29 16 SSW 1011,0 4,0
16.12.2018 08:00:00 0,9 0,4 22 12 29 16 SSW 1011,0 2,8
16.12.2018 07:00:00 0,7 0,2 15 8 - - SSW 1010,8 2,8
16.12.2018 06:00:00 0,6 -0,2 15 8 22 12 SSW 1010,6 5
16.12.2018 05:00:00 0,5 -0,3 13 7 18 10 S 1010,7 5
16.12.2018 04:00:00 0,5 -0,5 11 6 - - S 1010,5 6
16.12.2018 03:00:00 0,5 -0,8 11 6 18 10 S 1010,5 8
16.12.2018 02:00:00 0,5 -0,5 13 7 18 10 S 1010,8 6
16.12.2018 01:00:00 0,3 -0,9 13 7 - - SSE 1010,9 5
16.12.2018 00:00:00 -0,1 -1,5 11 6 29 16 SSE 1011,6 3,2
15.12.2018 23:00:00 -0,2 -1,9 18 10 32 18 SSE 1011,6 6
15.12.2018 22:00:00 -0,3 -2,2 22 12 - - SSE 1012,8 4,0
15.12.2018 21:00:00 -0,5 -3,2 26 14 43 23 SSE 1014,2 6
15.12.2018 20:00:00 -0,3 -5,8 28 15 43 23 SSE 1015,1 10
15.12.2018 19:00:00 -0,6 -6,1 24 13 - - SSE 1017,0 10
15.12.2018 18:00:00 -0,9 -5,8 21 11 32 18 SSE 1017,8 10
15.12.2018 17:00:00 -0,9 -5,7 18 10 40 21 SE 1019,0 10
15.12.2018 16:00:00 -0,6 -6,0 22 12 - - SSE 1020,0 10
15.12.2018 15:00:00 -0,1 -6,1 18 10 32 18 SSE 1021,1 10
15.12.2018 14:00:00 0,0 -6,0 21 11 29 16 S 1022,3 10
15.12.2018 13:00:00 0,1 -6,2 18 10 - - SSE 1023,0 10
15.12.2018 12:00:00 0,1 -6,6 18 10 32 18 SE 1023,6 10
15.12.2018 11:00:00 -0,2 -5,7 13 7 25 14 SE 1024,4 10
15.12.2018 10:00:00 -0,6 -5,8 11 6 - - SE 1024,7 10
15.12.2018 09:00:00 -0,9 -5,3 9 5 14 8 SE 1024,7 10
15.12.2018 08:00:00 -1,0 -5,6 9 5 14 8 SE 1024,8 10
15.12.2018 07:00:00 -1,1 -6,0 8 4 - - ESE 1024,8 10
15.12.2018 06:00:00 -1,1 -5,9 5 3 11 6 ESE 1024,9 10
15.12.2018 05:00:00 -0,9 -6,0 8 4 11 6 ESE 1025,1 10
15.12.2018 04:00:00 -0,8 -6,1 5 3 - - SE 1025,6 10
15.12.2018 03:00:00 -0,6 -6,5 5 3 11 6 ESE 1025,6 10
15.12.2018 02:00:00 -0,5 -6,3 5 3 7 4 E 1025,6 10
15.12.2018 01:00:00 -0,3 -7,0 4 2 - - - 1025,9 10
15.12.2018 00:00:00 -0,3 -7,4 5 3 14 8 ESE 1025,4 10
14.12.2018 23:00:00 -0,5 -5,8 5 3 11 6 SE 1025,2 10
14.12.2018 22:00:00 -0,3 -5,3 8 4 - - E 1025,1 10
14.12.2018 21:00:00 -0,5 -3,1 9 5 14 8 ENE 1025,1 9
14.12.2018 20:00:00 -0,4 -4,7 11 6 14 8 NE 1025,3 10
14.12.2018 19:00:00 0,0 -6,3 8 4 - - NE 1025,1 10
14.12.2018 18:00:00 0,0 -4,9 4 2 14 8 ENE 1024,8 10
14.12.2018 17:00:00 0,1 -4,5 5 3 11 6 N 1024,7 10
14.12.2018 16:00:00 0,1 -4,8 8 4 - - NNE 1023,9 10
14.12.2018 15:00:00 0,1 -5,8 13 7 18 10 E 1022,9 9
14.12.2018 14:00:00 0,0 -4,9 11 6 18 10 E 1022,7 7
14.12.2018 13:00:00 -0,3 -2,2 9 5 - - ENE 1022,8 7
14.12.2018 12:00:00 -0,6 -2,3 8 4 14 8 NE 1023,1 8
14.12.2018 11:00:00 -0,7 -3,3 9 5 22 12 ENE 1023,4 8
14.12.2018 10:00:00 -0,8 -4,0 13 7 - - E 1023,1 7
14.12.2018 09:00:00 -1,4 -2,9 8 4 14 8 NE 1022,7 6
14.12.2018 08:00:00 -1,8 -3,0 5 3 14 8 N 1022,1 6
14.12.2018 07:00:00 -2,0 -3,4 8 4 - - NNE 1021,4 9
14.12.2018 06:00:00 -2,7 -3,9 8 4 14 8 NE 1021,1 9
14.12.2018 05:00:00 -4,2 -5,0 11 6 14 8 NE 1021,1 10
14.12.2018 04:00:00 -3,5 -4,9 9 5 - - NNE 1021,4 10
14.12.2018 03:00:00 -4,0 -5,3 9 5 14 8 NNE 1021,5 10
14.12.2018 02:00:00 -3,3 -4,7 11 6 14 8 NE 1021,0 10
14.12.2018 01:00:00 -3,2 -4,4 9 5 - - NE 1021,0 10
14.12.2018 00:00:00 -2,9 -4,1 11 6 18 10 NE 1020,9 10
13.12.2018 23:00:00 -2,8 -4,1 13 7 18 10 NE 1020,8 10
13.12.2018 22:00:00 -1,8 -3,1 13 7 - - NE 1020,6 10
13.12.2018 21:00:00 -1,8 -3,8 16 9 25 14 ENE 1020,3 10
13.12.2018 20:00:00 -0,7 -3,9 18 10 25 14 ENE 1019,7 18
13.12.2018 19:00:00 -0,2 -3,2 18 10 - - ENE 1019,5 10
13.12.2018 18:00:00 -0,4 -3,3 21 11 29 16 ENE 1019,1 10
13.12.2018 17:00:00 -0,1 -2,9 21 11 32 18 ENE 1018,8 10
13.12.2018 16:00:00 0,9 -2,5 22 12 - - ENE 1018,3 10
13.12.2018 15:00:00 2,1 -4,9 22 12 32 18 E 1018,1 10
13.12.2018 14:00:00 1,6 -1,9 22 12 32 18 ENE 1018,1 10
13.12.2018 13:00:00 1,4 -2,0 24 13 - - ENE 1018,6 10
13.12.2018 12:00:00 1,3 -1,7 21 11 29 16 ENE 1019,0 10
13.12.2018 11:00:00 0,3 -1,9 21 11 29 16 ENE 1019,5 10
13.12.2018 10:00:00 -0,8 -2,1 16 9 - - ENE 1019,8 10
13.12.2018 09:00:00 -1,8 -2,8 16 9 22 12 ENE 1019,9 10
13.12.2018 08:00:00 -2,0 -2,9 13 7 18 10 ENE 1019,8 10
13.12.2018 07:00:00 -1,6 -2,4 11 6 - - ENE 1020,0 10
13.12.2018 06:00:00 -1,9 -2,9 8 4 11 6 ENE 1020,2 10
13.12.2018 05:00:00 -1,5 -2,7 4 2 18 10 - 1020,6 10
13.12.2018 04:00:00 -0,6 -2,3 13 7 - - E 1020,8 7
13.12.2018 03:00:00 -0,3 -2,1 15 8 22 12 E 1021,3 7
13.12.2018 02:00:00 -0,2 -1,7 9 5 18 10 E 1021,8 7

tt = Température de l'air
td = dewpoint
ff = Vitesse du vent
fx = gusts
dd = Direction du vent
ppp = reduced air pressure
vv = visibility

stations d'obs. à proximité